Tracking 27112 objects as of 27-Mar-2023
HD Live streaming from Space Station
objects crossing your sky now

ARIANE 42P DEB

Track ARIANE 42P DEB now!
10-day predictions


NORAD ID: 44514
Int'l Code: 1992-052M
Perigee: 1,127.5 km
Apogee: 1,491.4 km
Inclination: 65.8 °
Period: 111.6 minutes
Semi major axis: 7680 km
RCS: Unknown
Launch date: August 10, 1992
Source: France (FR)
Launch site: FRENCH GUIANA (FRGUI)

Note: This is SATELLITE DEBRIS
Your satellite tracking list
Your tracking list is empty




NASA's NSSDC Master Catalog

Two Line Element Set (TLE):
1 44514U 92052M   23086.11149697  .00006341  00000-0  21683-1 0  9998
2 44514  65.7844 132.8449 0236887 146.6495 214.9704 12.89803261169355
Source of the keplerian elements: AFSPC